Location: Baix
(44.7118°N, 4.7648°E)
Time: 16:11:08
(UTC+00:00)

Meteor 2-14 Rocket - Pass Details

Date: 07 August 2020
Orbit: 938 x 956 km, 82.5° (Epoch: 22 September)

Event Time Altitude Azimuth Distance (km) Brightness Sun altitude
Rises 02:56:04 0° 351° (N) 3,610 8.0 -15.3°
Reaches altitude 10° 02:58:34 10° 351° (N) 2,661 7.2 -15.0°
Maximum altitude 03:04:39 90° 262° (W) 945 4.4 -14.2°
Drops below altitude 10° 03:10:43 10° 174° (S) 2,645 6.5 -13.4°
Sets 03:13:11 0° 174° (S) 3,587 7.1 -13.1°
